{"data":{"norad_id":48133,"epoch":"2026-09-19T20:03:18.241056Z","epoch_age_seconds":86539,"freshness":"FRESH","line1":"1 48133U 21027AT  26262.83562779  .00003132  00000+0  11266-3 0  9993","line2":"2 48133  53.1596 341.8684 0001177  73.0794 287.0337 15.31698043302263","mean_motion":15.31698043,"eccentricity":0.0001177,"inclination_deg":53.1596,"raan_deg":341.8684,"arg_perigee_deg":73.0794,"mean_anomaly_deg":287.0337,"bstar":0.00011266,"rev_number":30226,"period_min":94.013308078634,"perigee_km":469.93971543806,"apogee_km":471.55194245599,"semimajor_km":6848.882828947,"source":"CELESTRAK","updated_at":"2026-09-20T09:00:38.767987Z"}}